Location: Kuffner-Sternwarte
(48.2130°N, 16.2960°E)
Time: 19:57:14
(UTC+02:00)

MOZHAYETS 4 - Visible Passes

Search period start: 07 August 2020 00:00
Search period end: 17 August 2020 00:00
Orbit: 662 x 680 km, 98.1° (Epoch: 07 August)

Date Brightness Start Highest point End Pass type
(mag) Time Alt. Az. Time Alt. Az. Time Alt. Az.
07 Aug 8.8 02:12:27 26° ESE 02:14:31 42° ENE 02:18:53 10° N visible
07 Aug 8.9 03:50:40 23° WSW 03:51:46 25° W 03:55:37 10° NW visible
08 Aug 10.4 01:08:59 10° E 01:11:03 13° NE 01:13:06 10° NNE visible
08 Aug 7.7 02:45:57 44° SSE 02:47:26 84° ENE 02:52:05 10° NNW visible
08 Aug 9.6 04:24:10 12° W 04:25:10 13° W 04:27:10 10° WNW visible
09 Aug 9.8 01:41:13 15° ESE 01:43:40 23° ENE 01:47:19 10° N visible
09 Aug 8.0 03:19:27 40° SW 03:20:30 48° W 03:25:01 10° NNW visible
10 Aug 8.7 02:14:42 30° ESE 02:16:27 43° ENE 02:20:50 10° N visible
10 Aug 8.9 03:52:57 23° WSW 03:53:45 24° W 03:57:31 10° NW visible
11 Aug 10.4 01:10:46 10° E 01:12:58 13° ENE 01:15:09 10° NNE visible
11 Aug 7.7 02:48:12 51° SSE 02:49:23 87° ENE 02:54:02 10° NNW visible
11 Aug 9.7 04:26:26 12° W 04:27:09 12° W 04:28:56 10° WNW visible
12 Aug 9.7 01:43:28 17° E 01:45:35 24° ENE 01:49:18 10° N visible
12 Aug 8.0 03:21:42 42° SW 03:22:28 46° W 03:26:56 10° NNW visible
13 Aug 8.6 02:16:59 34° ESE 02:18:24 45° ENE 02:22:48 10° N visible
13 Aug 9.0 03:55:13 23° WSW 03:55:43 23° W 03:59:24 10° NW visible
14 Aug 10.3 01:12:34 10° E 01:14:53 14° ENE 01:17:11 10° NNE visible
14 Aug 7.6 02:50:29 60° SSE 02:51:20 90° W 02:55:59 10° NNW visible
14 Aug 9.7 04:28:43 11° W 04:29:07 11° W 04:30:39 10° WNW visible
15 Aug 9.6 01:45:45 20° E 01:47:31 25° ENE 01:51:16 10° N visible
15 Aug 8.1 03:23:59 43° WSW 03:24:25 44° W 03:28:52 10° NNW visible
16 Aug 8.5 02:19:15 39° ESE 02:20:19 47° ENE 02:24:45 10° N visible
16 Aug 9.0 03:57:30 22° W 03:57:41 22° W 04:01:17 10° NW visible
